Showing default

SKYSAT 1, 39418

Orbit data source: Space-Track

SKYSAT 1, 39418 is a payload satellite owned by Skybox (US) in SSO that was launched on Thu, 21 Nov 2013 UTC via a DNEPR launch vehicle from the Orenburg, Russia (OREN). Payload-class satellites include a variety of spacecraft equipped with specific instruments for various scientific and technological missions. These include communications satellites like Starlink; space stations such as the ISS; scientific satellites like the Hubble; Earth observation satellites from companies like Planet Labs, Umbra, and HawkEye 360; GPS; miniature CubeSats for education and research; and military/defense satellites.

Loading next visibility...
Identifier
39418, 2013-066C
Orbit
SSO
Country
Flag of USUS
Related business
Manufacturer
Skybox
Mission
Operational Commercial Imaging
Bus & Motor
SKYSTAT, Unknown motor
Mass
90 kg wet, 90 kg dry
Launch date (UTC)
2013-11-21 (12 years ago)
Launch vehicle
DNEPR
Launch site
Orenburg, Russia (OREN)
Object type
Payload
Rocket body
Debris
Shape & HBR
Box, 1.0 m
Radar Cross Section
0.800 m², Medium (>0.1 m² and < 1m²)

Expand to show TLE details & history
Last TLE update: 14 hours ago

TLE from 14 hours ago
0 SKYSAT 1
1 39418U 13066C   25300.39531109  .00004007  00000-0  24153-3 0  9991
2 39418  97.4174 352.0101 0023362  42.1411 318.1610 15.11102952653304
Epoch: 2025-10-27T09:29Z
TLE epoch observation values (Epoch: 2025-10-27T09:29:14.878Z)
Latitude
-0.00002°
Longitude
173.70034°
Altitude
523.899 km
Speed
7.608 km/s
True Right ascension
23h 28m 02s
True Declination
0° 00' 00"
Sunlit
Object was in full shadow at epoch
Visualization orbit readout
Latitude
Unknown
Longitude
Unknown
Altitude
Unknown
Speed
Unknown
Apparent Right ascension
Unknown
Apparent Declination
Unknown
Sunlit
N/A
Visualization observer readout
Local Sidereal Time
18:25:28
Azimuth
Unknown
Elevation
Unknown
Doppler factor
Unknown
Orbital elements
Apogee altitude
545.952 km
Perigee altitude
513.675 km
Semi-major axis
6,907.95 km
Eccentricity
0.00234
Inclination
97.4174°
RAAN
352.0101°
Arg. of periapsis
42.1411°
True anomaly
317.98204°
Mean anomaly
318.161°
Eccentric anomaly
318.07156°
Mean motion
3.78024 °/min
Orbital period
95.23 mins
BSTAR
0.00024153
Loading maneuver chart data...
Computing Atmospheric mass density...
Loading historical data...
Loading historical data...
Loading historical data...
Loading historical data...
Loading historical data...
Loading historical data...
Loading historical data...

Documentation

Showing up to 5 results
|